RELEVES METEO NEUVILLE
Donnes mto: Actuelle samedi, 16/12/2017 15:30
Date Horaire Temp. E. Hum. E. P.atmo. Pluie Vent Direction Direction P. de rose Temp au vent Rafales
16/12/2017 15:30 4,4 C 88 % 1016,9 hPa 0,0 mm 1,4 km/h (1 Bft) NE 52 2,6 C 4,4 C 9,7 km/h (2 Bft)
16/12/2017 15:25 4,4 C 88 % 1016,8 hPa 0,0 mm 1,9 km/h (1 Bft) N-NE 13 2,6 C 4,4 C 9,7 km/h (2 Bft)
16/12/2017 15:20 4,4 C 88 % 1016,7 hPa 0,0 mm 0,6 km/h (0 Bft) N-NE 27 2,6 C 4,4 C 8,0 km/h (2 Bft)
16/12/2017 15:15 4,4 C 88 % 1016,6 hPa 0,0 mm 0,7 km/h (0 Bft) N-NO 344 2,6 C 4,4 C 6,4 km/h (2 Bft)
16/12/2017 15:10 4,3 C 88 % 1016,6 hPa 0,0 mm 0,4 km/h (0 Bft) NO 323 2,5 C 4,3 C 3,2 km/h (1 Bft)
16/12/2017 15:05 4,3 C 88 % 1016,5 hPa 0,0 mm 0,1 km/h (0 Bft) NO 323 2,5 C 4,3 C 1,6 km/h (1 Bft)
16/12/2017 15:00 4,3 C 88 % 1016,5 hPa 0,0 mm 0,4 km/h (0 Bft) NO 323 2,5 C 4,3 C 6,4 km/h (2 Bft)
16/12/2017 14:55 4,3 C 88 % 1016,6 hPa 0,0 mm 1,2 km/h (1 Bft) NO 323 2,5 C 4,3 C 6,4 km/h (2 Bft)
16/12/2017 14:50 4,3 C 88 % 1016,6 hPa 0,0 mm 0,2 km/h (0 Bft) O-NO 300 2,5 C 4,3 C 3,2 km/h (1 Bft)
16/12/2017 14:45 4,2 C 88 % 1016,5 hPa 0,0 mm 0,2 km/h (0 Bft) O-NO 294 2,4 C 4,2 C 6,4 km/h (2 Bft)
16/12/2017 14:40 4,2 C 88 % 1016,5 hPa 0,0 mm 1,4 km/h (1 Bft) O-NO 294 2,4 C 4,2 C 8,0 km/h (2 Bft)
16/12/2017 14:35 4,2 C 88 % 1016,5 hPa 0,0 mm 1,3 km/h (1 Bft) NE 36 2,4 C 4,2 C 6,4 km/h (2 Bft)
16/12/2017 14:30 4,2 C 88 % 1016,4 hPa 0,0 mm 1,4 km/h (1 Bft) N 360 2,4 C 4,2 C 12,9 km/h (3 Bft)
16/12/2017 14:25 4,3 C 88 % 1016,3 hPa 0,0 mm 1,5 km/h (1 Bft) N 351 2,5 C 4,3 C 9,7 km/h (2 Bft)
16/12/2017 14:20 4,3 C 88 % 1016,3 hPa 0,0 mm 3,4 km/h (1 Bft) N-NE 21 2,5 C 4,3 C 14,5 km/h (3 Bft)
16/12/2017 14:15 4,3 C 89 % 1016,3 hPa 0,0 mm 1,8 km/h (1 Bft) N 355 2,7 C 4,3 C 8,0 km/h (2 Bft)
16/12/2017 14:10 4,4 C 89 % 1016,2 hPa 0,0 mm 1,6 km/h (1 Bft) NO 325 2,7 C 4,4 C 8,0 km/h (2 Bft)
16/12/2017 14:05 4,4 C 88 % 1016,3 hPa 0,0 mm 1,4 km/h (1 Bft) N-NO 331 2,6 C 4,4 C 14,5 km/h (3 Bft)
16/12/2017 14:00 4,5 C 89 % 1016,2 hPa 0,0 mm 0,9 km/h (0 Bft) N 360 2,8 C 4,5 C 14,5 km/h (3 Bft)
16/12/2017 13:55 4,6 C 89 % 1016,1 hPa 0,0 mm 1,7 km/h (1 Bft) N-NO 339 2,9 C 4,6 C 11,3 km/h (2 Bft)
16/12/2017 13:50 4,6 C 89 % 1016,1 hPa 0,0 mm 3,1 km/h (1 Bft) N-NE 26 2,9 C 4,6 C 9,7 km/h (2 Bft)
_ Min-Heure 01:25 14:05 00:00 - 01:00 - - 08:30 01:25 01:35
Minimum _ 2,8 C 88 % 1004,2 hPa - 0,0 km/h (0 Bft) - - 2,1 C 2,8 C 0,0 km/h (0 Bft)
_ Max-Heure 13:10 02:55 15:30 04:05 08:00 - - 12:30 13:05 11:40
Maximum _ 5,5 C 97 % 1016,9 hPa 0,2 mm 6,3 km/h
N-NO (2 Bft)
- - 4,0 C 5,4 C 19,3 km/h
NO (3 Bft)
Moyenne _ 3,7 C 94 % 1011,1 hPa #0,8 mm 1,3 km/h (1 Bft) NO - 2,9 C 3,7 C 7,9 km/h (2 Bft)
NEUVILLE ST REMY